| time (UTC) | temp F | wind direction | speed MPH | gust MPH | rain 1hr in | rain 24hr in | rain mn in | humidity % | barometer mb |
| 20260906172045 | 83 | 142 | 12.0 | 23.0 | 0.00 | 0.00 | 0.00 | 61 | 1018.8 |
| 20260906171602 | 83 | 102 | 13.0 | 23.0 | 0.00 | 0.00 | 0.00 | 61 | 1018.9 |
| 20260906171046 | 82 | 115 | 14.0 | 19.0 | 0.00 | 0.00 | 0.00 | 65 | 1019.1 |
| 20260906170547 | 80 | 102 | 11.0 | 18.0 | 0.00 | 0.00 | 0.00 | 71 | 1019.1 |
| 20260906170103 | 79 | 77 | 6.0 | 13.0 | 0.00 | 0.00 | 0.00 | 73 | 1019.1 |
| 20260906165552 | 78 | 89 | 9.0 | 17.0 | 0.00 | 0.00 | 0.00 | 76 | 1018.9 |
| 20260906165048 | 77 | 98 | 8.0 | 17.0 | 0.00 | 0.00 | 0.00 | 77 | 1019.1 |
| 20260906164602 | 77 | 86 | 11.0 | 17.0 | 0.00 | 0.00 | 0.00 | 73 | 1019.2 |
| 20260906164048 | 78 | 68 | 6.0 | 15.0 | 0.00 | 0.00 | 0.00 | 71 | 1019.3 |
| 20260906163545 | 80 | 41 | 6.0 | 14.0 | 0.00 | 0.00 | 0.00 | 68 | 1019.3 |
| 20260906163112 | 80 | 77 | 6.0 | 13.0 | 0.00 | 0.00 | 0.00 | 66 | 1019.5 |
| 20260906162548 | 80 | 68 | 6.0 | 14.0 | 0.00 | 0.00 | 0.00 | 65 | 1019.7 |
| 20260906162047 | 79 | 85 | 6.0 | 14.0 | 0.00 | 0.00 | 0.00 | 67 | 1019.6 |
| 20260906161611 | 79 | 68 | 6.0 | 12.0 | 0.00 | 0.00 | 0.00 | 67 | 1019.7 |
| 20260906161047 | 80 | 102 | 4.0 | 13.0 | 0.00 | 0.00 | 0.00 | 67 | 1019.7 |
| 20260906160547 | 80 | 68 | 4.0 | 13.0 | 0.00 | 0.00 | 0.00 | 68 | 1019.5 |
| 20260906160105 | 80 | 109 | 5.0 | 13.0 | 0.00 | 0.00 | 0.00 | 67 | 1019.5 |
| 20260906155547 | 80 | 94 | 5.0 | 13.0 | 0.00 | 0.00 | 0.00 | 66 | 1019.4 |
| 20260906155047 | 80 | 37 | 4.0 | 13.0 | 0.00 | 0.00 | 0.00 | 65 | 1019.4 |
| 20260906154602 | 80 | 49 | 4.0 | 14.0 | 0.00 | 0.00 | 0.00 | 66 | 1019.3 |
| 20260906154047 | 80 | 13 | 6.0 | 15.0 | 0.00 | 0.00 | 0.00 | 65 | 1019.3 |
| 20260906153546 | 80 | 97 | 7.0 | 15.0 | 0.00 | 0.00 | 0.00 | 65 | 1019.1 |
| 20260906153056 | 80 | 91 | 5.0 | 14.0 | 0.00 | 0.00 | 0.00 | 64 | 1019.2 |
| 20260906152548 | 80 | 53 | 5.0 | 13.0 | 0.00 | 0.00 | 0.00 | 66 | 1019.3 |
| 20260906152048 | 79 | 66 | 6.0 | 13.0 | 0.00 | 0.00 | 0.00 | 65 | 1019.4 |
| 20260906151608 | 79 | 21 | 4.0 | 11.0 | 0.00 | 0.00 | 0.00 | 65 | 1019.2 |
| 20260906151047 | 79 | 106 | 4.0 | 11.0 | 0.00 | 0.00 | 0.00 | 65 | 1019.2 |
| 20260906150549 | 79 | 68 | 5.0 | 11.0 | 0.00 | 0.00 | 0.00 | 65 | 1019.1 |
| 20260906150059 | 79 | 94 | 3.0 | 14.0 | 0.00 | 0.00 | 0.00 | 64 | 1018.8 |
| 20260906145547 | 79 | 20 | 2.0 | 14.0 | 0.00 | 0.00 | 0.00 | 64 | 1018.8 |
| 20260906145047 | 79 | 54 | 5.0 | 14.0 | 0.00 | 0.00 | 0.00 | 64 | 1018.8 |
| 20260906144603 | 79 | 159 | 5.0 | 9.0 | 0.00 | 0.00 | 0.00 | 64 | 1018.8 |
| 20260906144051 | 79 | 50 | 2.0 | 12.0 | 0.00 | 0.00 | 0.00 | 64 | 1018.7 |
| 20260906143547 | 79 | 84 | 3.0 | 12.0 | 0.00 | 0.00 | 0.00 | 64 | 1018.7 |
| 20260906143104 | 79 | 65 | 3.0 | 12.0 | 0.00 | 0.00 | 0.00 | 62 | 1018.7 |
| 20260906142547 | 79 | 74 | 4.0 | 10.0 | 0.00 | 0.00 | 0.00 | 61 | 1018.5 |
| 20260906142046 | 79 | 39 | 3.0 | 10.0 | 0.00 | 0.00 | 0.00 | 61 | 1018.6 |
| 20260906141604 | 80 | 53 | 3.0 | 11.0 | 0.00 | 0.00 | 0.00 | 61 | 1018.6 |
| 20260906141047 | 80 | 0 | 5.0 | 11.0 | 0.00 | 0.00 | 0.00 | 60 | 1018.4 |
| 20260906140549 | 80 | 94 | 9.0 | 11.0 | 0.00 | 0.00 | 0.00 | 61 | 1018.0 |
| 20260906140108 | 79 | 91 | 7.0 | 10.0 | 0.00 | 0.00 | 0.00 | 63 | 1017.9 |
| 20260906135547 | 78 | 127 | 6.0 | 9.0 | 0.00 | 0.00 | 0.00 | 66 | 1017.8 |
| 20260906135051 | 77 | 115 | 6.0 | 9.0 | 0.00 | 0.00 | 0.00 | 68 | 1017.8 |
| 20260906134616 | 77 | 124 | 6.0 | 9.0 | 0.00 | 0.00 | 0.00 | 69 | 1017.8 |
| 20260906134050 | 76 | 124 | 5.0 | 8.0 | 0.00 | 0.00 | 0.00 | 70 | 1017.6 |
| 20260906133549 | 76 | 139 | 6.0 | 8.0 | 0.00 | 0.00 | 0.00 | 70 | 1017.7 |
| 20260906133115 | 76 | 139 | 5.0 | 8.0 | 0.00 | 0.00 | 0.00 | 71 | 1017.5 |
| 20260906132547 | 75 | 145 | 4.0 | 7.0 | 0.00 | 0.00 | 0.00 | 71 | 1017.4 |
| 20260906132048 | 75 | 134 | 5.0 | 8.0 | 0.00 | 0.00 | 0.00 | 71 | 1017.3 |
| 20260906131602 | 75 | 134 | 6.0 | 8.0 | 0.00 | 0.00 | 0.00 | 72 | 1017.4 |
| 20260906131046 | 74 | 136 | 6.0 | 8.0 | 0.00 | 0.00 | 0.00 | 73 | 1017.4 |
| 20260906130549 | 73 | 141 | 5.0 | 8.0 | 0.00 | 0.00 | 0.00 | 74 | 1017.2 |
| 20260906130110 | 73 | 143 | 6.0 | 8.0 | 0.00 | 0.00 | 0.00 | 75 | 1017.2 |
| 20260906125548 | 73 | 143 | 6.0 | 10.0 | 0.00 | 0.00 | 0.00 | 75 | 1017.0 |
| 20260906125046 | 72 | 141 | 7.0 | 10.0 | 0.00 | 0.00 | 0.00 | 75 | 1016.9 |
| 20260906124608 | 72 | 141 | 7.0 | 8.0 | 0.00 | 0.00 | 0.00 | 76 | 1017.0 |
| 20260906124052 | 72 | 134 | 6.0 | 8.0 | 0.00 | 0.00 | 0.00 | 76 | 1017.0 |
| 20260906123547 | 71 | 141 | 5.0 | 7.0 | 0.00 | 0.00 | 0.00 | 77 | 1016.8 |
| 20260906123104 | 71 | 144 | 5.0 | 6.0 | 0.00 | 0.00 | 0.00 | 78 | 1016.8 |
| 20260906122548 | 71 | 148 | 4.0 | 6.0 | 0.00 | 0.00 | 0.00 | 78 | 1016.7 |
| 20260906122048 | 70 | 149 | 4.0 | 6.0 | 0.00 | 0.00 | 0.00 | 78 | 1016.6 |
| 20260906121611 | 70 | 146 | 4.0 | 6.0 | 0.00 | 0.00 | 0.00 | 79 | 1016.6 |
| 20260906121047 | 70 | 148 | 4.0 | 5.0 | 0.00 | 0.00 | 0.00 | 79 | 1016.5 |
| 20260906120547 | 70 | 141 | 4.0 | 5.0 | 0.00 | 0.00 | 0.00 | 79 | 1016.5 |
| 20260906120056 | 69 | 134 | 4.0 | 6.0 | 0.00 | 0.00 | 0.00 | 80 | 1016.4 |
| 20260906115545 | 69 | 153 | 4.0 | 6.0 | 0.00 | 0.00 | 0.00 | 80 | 1016.3 |
| 20260906115048 | 69 | 154 | 5.0 | 6.0 | 0.00 | 0.00 | 0.00 | 80 | 1016.4 |
| 20260906114627 | 69 | 139 | 5.0 | 6.0 | 0.00 | 0.00 | 0.00 | 80 | 1016.2 |
| 20260906114048 | 69 | 143 | 5.0 | 5.0 | 0.00 | 0.00 | 0.00 | 80 | 1016.2 |
| 20260906113545 | 69 | 143 | 4.0 | 5.0 | 0.00 | 0.00 | 0.00 | 80 | 1016.1 |
| 20260906113114 | 69 | 146 | 4.0 | 5.0 | 0.00 | 0.00 | 0.00 | 80 | 1016.1 |
| 20260906112547 | 69 | 133 | 4.0 | 5.0 | 0.00 | 0.00 | 0.00 | 79 | 1016.1 |
| 20260906112047 | 69 | 152 | 4.0 | 5.0 | 0.00 | 0.00 | 0.00 | 80 | 1016.0 |
| 20260906111559 | 69 | 156 | 4.0 | 5.0 | 0.00 | 0.00 | 0.00 | 80 | 1016.1 |
| 20260906111047 | 69 | 157 | 4.0 | 5.0 | 0.00 | 0.00 | 0.00 | 79 | 1016.1 |
| 20260906110550 | 70 | 147 | 4.0 | 5.0 | 0.00 | 0.00 | 0.00 | 79 | 1016.1 |
| 20260906105549 | 70 | 143 | 3.0 | 4.0 | 0.00 | 0.00 | 0.00 | 78 | 1016.1 |
| 20260906105048 | 70 | 144 | 3.0 | 3.0 | 0.00 | 0.00 | 0.00 | 78 | 1016.0 |
| 20260906104602 | 70 | 131 | 2.0 | 3.0 | 0.00 | 0.00 | 0.00 | 77 | 1015.9 |
| 20260906104047 | 70 | 130 | 3.0 | 3.0 | 0.00 | 0.00 | 0.00 | 76 | 1015.8 |
| 20260906103546 | 71 | 129 | 2.0 | 3.0 | 0.00 | 0.00 | 0.00 | 75 | 1015.8 |
| 20260906103056 | 71 | 128 | 2.0 | 4.0 | 0.00 | 0.00 | 0.00 | 75 | 1016.0 |
| 20260906102546 | 71 | 129 | 2.0 | 5.0 | 0.00 | 0.00 | 0.00 | 75 | 1015.8 |
| 20260906102052 | 71 | 122 | 3.0 | 5.0 | 0.00 | 0.00 | 0.00 | 75 | 1016.0 |
| 20260906101604 | 71 | 123 | 4.0 | 5.0 | 0.00 | 0.00 | 0.00 | 75 | 1016.0 |
| 20260906101050 | 72 | 108 | 3.0 | 5.0 | 0.00 | 0.00 | 0.00 | 76 | 1015.9 |
| 20260906100546 | 72 | 113 | 3.0 | 3.0 | 0.00 | 0.00 | 0.00 | 75 | 1016.0 |
| 20260906100106 | 72 | 128 | 3.0 | 3.0 | 0.00 | 0.00 | 0.00 | 74 | 1016.0 |
| 20260906095547 | 72 | 120 | 2.0 | 3.0 | 0.00 | 0.00 | 0.00 | 73 | 1016.0 |
| 20260906095045 | 73 | 0 | 0.0 | 0.0 | 0.00 | 0.00 | 0.00 | 72 | 1016.0 |
| 20260906094601 | 73 | 0 | 0.0 | 2.0 | 0.00 | 0.00 | 0.00 | 72 | 1015.9 |
| 20260906094047 | 74 | 0 | 0.0 | 3.0 | 0.00 | 0.00 | 0.00 | 71 | 1016.0 |
| 20260906093547 | 74 | 119 | 2.0 | 4.0 | 0.00 | 0.00 | 0.00 | 70 | 1016.0 |
| 20260906093057 | 74 | 153 | 2.0 | 4.0 | 0.00 | 0.00 | 0.00 | 70 | 1015.9 |
| 20260906092547 | 75 | 148 | 3.0 | 4.0 | 0.00 | 0.00 | 0.00 | 70 | 1015.9 |
| 20260906092047 | 75 | 182 | 2.0 | 4.0 | 0.00 | 0.00 | 0.00 | 69 | 1015.8 |
| 20260906091611 | 75 | 150 | 2.0 | 4.0 | 0.00 | 0.00 | 0.00 | 69 | 1015.8 |
| 20260906091046 | 75 | 188 | 2.0 | 4.0 | 0.00 | 0.00 | 0.00 | 68 | 1016.0 |
| 20260906090548 | 76 | 148 | 3.0 | 4.0 | 0.00 | 0.00 | 0.00 | 68 | 1016.0 |
| 20260906090112 | 76 | 168 | 2.0 | 5.0 | 0.00 | 0.00 | 0.00 | 68 | 1016.0 |
| 20260906085551 | 76 | 179 | 3.0 | 5.0 | 0.00 | 0.00 | 0.00 | 67 | 1016.0 |
| 20260906085047 | 76 | 166 | 4.0 | 6.0 | 0.00 | 0.00 | 0.00 | 67 | 1016.0 |
| 20260906084601 | 77 | 151 | 4.0 | 6.0 | 0.00 | 0.00 | 0.00 | 66 | 1015.8 |
| 20260906084046 | 77 | 218 | 3.0 | 6.0 | 0.00 | 0.00 | 0.00 | 66 | 1015.8 |
| 20260906083547 | 77 | 199 | 3.0 | 6.0 | 0.00 | 0.00 | 0.00 | 65 | 1015.8 |
| 20260906083103 | 77 | 197 | 4.0 | 6.0 | 0.00 | 0.00 | 0.00 | 65 | 1015.9 |
| 20260906082546 | 77 | 205 | 4.0 | 6.0 | 0.00 | 0.00 | 0.00 | 65 | 1016.0 |
| 20260906082048 | 77 | 204 | 3.0 | 6.0 | 0.00 | 0.00 | 0.00 | 64 | 1016.0 |
| 20260906081602 | 77 | 205 | 3.0 | 5.0 | 0.00 | 0.00 | 0.00 | 64 | 1016.1 |
| 20260906081048 | 78 | 174 | 3.0 | 6.0 | 0.00 | 0.00 | 0.00 | 63 | 1016.1 |
| 20260906080549 | 78 | 176 | 3.0 | 7.0 | 0.00 | 0.00 | 0.00 | 63 | 1016.2 |
| 20260906080111 | 78 | 206 | 3.0 | 9.0 | 0.00 | 0.00 | 0.00 | 63 | 1016.2 |
| 20260906075547 | 78 | 214 | 5.0 | 9.0 | 0.00 | 0.00 | 0.00 | 62 | 1016.1 |
| 20260906075047 | 78 | 220 | 6.0 | 9.0 | 0.00 | 0.00 | 0.00 | 62 | 1016.2 |
| 20260906074603 | 78 | 205 | 5.0 | 8.0 | 0.00 | 0.00 | 0.00 | 62 | 1016.0 |
| 20260906074046 | 78 | 236 | 5.0 | 8.0 | 0.00 | 0.00 | 0.00 | 62 | 1016.0 |
| 20260906073547 | 78 | 220 | 5.0 | 8.0 | 0.00 | 0.00 | 0.00 | 61 | 1016.0 |
| 20260906073103 | 78 | 194 | 6.0 | 8.0 | 0.00 | 0.00 | 0.00 | 60 | 1016.0 |
| 20260906072549 | 78 | 202 | 5.0 | 8.0 | 0.00 | 0.00 | 0.00 | 60 | 1016.1 |
| 20260906072047 | 78 | 191 | 5.0 | 8.0 | 0.00 | 0.00 | 0.00 | 60 | 1016.0 |
| 20260906071606 | 78 | 166 | 6.0 | 9.0 | 0.00 | 0.00 | 0.00 | 60 | 1016.0 |
| 20260906071048 | 78 | 166 | 6.0 | 10.0 | 0.00 | 0.00 | 0.00 | 60 | 1015.9 |
| 20260906070550 | 79 | 148 | 7.0 | 10.0 | 0.00 | 0.00 | 0.00 | 60 | 1015.8 |
| 20260906065548 | 79 | 164 | 7.0 | 10.0 | 0.00 | 0.00 | 0.00 | 60 | 1015.8 |
| 20260906065047 | 79 | 157 | 7.0 | 10.0 | 0.00 | 0.00 | 0.00 | 59 | 1016.0 |
| 20260906064559 | 79 | 141 | 7.0 | 10.0 | 0.00 | 0.00 | 0.00 | 59 | 1016.0 |
| 20260906064049 | 80 | 148 | 7.0 | 11.0 | 0.00 | 0.00 | 0.00 | 58 | 1016.1 |
| 20260906063552 | 80 | 155 | 7.0 | 11.0 | 0.00 | 0.00 | 0.00 | 58 | 1016.1 |
| 20260906063102 | 80 | 156 | 7.0 | 11.0 | 0.00 | 0.00 | 0.00 | 58 | 1016.0 |
| 20260906062551 | 80 | 164 | 8.0 | 12.0 | 0.00 | 0.00 | 0.00 | 58 | 1016.1 |
| 20260906062049 | 80 | 142 | 9.0 | 12.0 | 0.00 | 0.00 | 0.00 | 58 | 1016.1 |
| 20260906061608 | 80 | 152 | 9.0 | 12.0 | 0.00 | 0.00 | 0.00 | 58 | 1016.0 |
| 20260906061047 | 80 | 139 | 8.0 | 11.0 | 0.00 | 0.00 | 0.00 | 58 | 1016.1 |
| 20260906060547 | 80 | 153 | 8.0 | 11.0 | 0.00 | 0.00 | 0.00 | 58 | 1016.1 |
| 20260906060150 | 80 | 175 | 7.0 | 10.0 | 0.00 | 0.00 | 0.00 | 58 | 1016.1 |
| 20260906055550 | 80 | 143 | 7.0 | 10.0 | 0.00 | 0.00 | 0.00 | 59 | 1016.0 |
| 20260906055049 | 80 | 146 | 8.0 | 12.0 | 0.00 | 0.00 | 0.00 | 60 | 1015.8 |
| 20260906054604 | 79 | 129 | 8.0 | 13.0 | 0.00 | 0.00 | 0.00 | 60 | 1015.9 |
| 20260906054049 | 79 | 130 | 9.0 | 13.0 | 0.00 | 0.00 | 0.00 | 61 | 1015.8 |
| 20260906053545 | 79 | 141 | 9.0 | 13.0 | 0.00 | 0.00 | 0.00 | 61 | 1015.7 |
| 20260906053100 | 79 | 129 | 9.0 | 13.0 | 0.00 | 0.00 | 0.00 | 62 | 1015.7 |
| 20260906052549 | 79 | 133 | 8.0 | 13.0 | 0.00 | 0.00 | 0.00 | 62 | 1015.6 |
| 20260906052047 | 79 | 123 | 8.0 | 13.0 | 0.00 | 0.00 | 0.00 | 62 | 1015.6 |
| 20260906051605 | 79 | 124 | 7.0 | 11.0 | 0.00 | 0.00 | 0.00 | 62 | 1015.6 |
| 20260906051049 | 79 | 132 | 8.0 | 12.0 | 0.00 | 0.00 | 0.00 | 62 | 1015.6 |
| 20260906050548 | 79 | 117 | 8.0 | 12.0 | 0.00 | 0.00 | 0.00 | 62 | 1015.5 |
| 20260906050116 | 79 | 124 | 8.0 | 12.0 | 0.00 | 0.00 | 0.00 | 61 | 1015.4 |
| 20260906045548 | 79 | 130 | 8.0 | 12.0 | 0.00 | 0.00 | 0.00 | 61 | 1015.4 |
| 20260906045049 | 79 | 131 | 8.0 | 12.0 | 0.00 | 0.00 | 0.00 | 61 | 1015.3 |
| 20260906044559 | 79 | 111 | 9.0 | 12.0 | 0.00 | 0.00 | 0.00 | 61 | 1015.4 |
| 20260906044047 | 79 | 122 | 9.0 | 11.0 | 0.00 | 0.00 | 0.00 | 61 | 1015.5 |
| 20260906043545 | 78 | 115 | 7.0 | 10.0 | 0.00 | 0.00 | 0.00 | 62 | 1015.6 |
| 20260906043107 | 78 | 121 | 7.0 | 10.0 | 0.00 | 0.00 | 0.00 | 62 | 1015.3 |
| 20260906042546 | 78 | 132 | 7.0 | 10.0 | 0.00 | 0.00 | 0.00 | 63 | 1015.3 |
| 20260906042045 | 78 | 128 | 7.0 | 10.0 | 0.00 | 0.00 | 0.00 | 62 | 1015.3 |
| 20260906041602 | 78 | 110 | 7.0 | 9.0 | 0.00 | 0.00 | 0.00 | 62 | 1015.3 |
| 20260906041046 | 78 | 123 | 7.0 | 9.0 | 0.00 | 0.00 | 0.00 | 62 | 1015.3 |
| 20260906040547 | 78 | 116 | 7.0 | 10.0 | 0.00 | 0.00 | 0.00 | 61 | 1015.4 |
| 20260906040111 | 78 | 127 | 7.0 | 11.0 | 0.00 | 0.00 | 0.00 | 61 | 1015.4 |
| 20260906035547 | 79 | 127 | 8.0 | 11.0 | 0.00 | 0.00 | 0.00 | 61 | 1015.3 |
| 20260906035048 | 78 | 117 | 7.0 | 11.0 | 0.00 | 0.00 | 0.00 | 61 | 1015.3 |
| 20260906034603 | 78 | 120 | 8.0 | 11.0 | 0.00 | 0.00 | 0.00 | 61 | 1015.3 |
| 20260906034046 | 78 | 110 | 7.0 | 10.0 | 0.00 | 0.00 | 0.00 | 62 | 1015.3 |
| 20260906033550 | 78 | 126 | 8.0 | 10.0 | 0.00 | 0.00 | 0.00 | 63 | 1015.3 |
| 20260906033107 | 78 | 132 | 6.0 | 10.0 | 0.00 | 0.00 | 0.00 | 63 | 1015.3 |
| 20260906032546 | 78 | 139 | 7.0 | 10.0 | 0.00 | 0.00 | 0.00 | 63 | 1015.2 |
| 20260906032048 | 78 | 135 | 7.0 | 10.0 | 0.00 | 0.00 | 0.00 | 63 | 1015.2 |
| 20260906031630 | 78 | 127 | 6.0 | 11.0 | 0.00 | 0.00 | 0.00 | 63 | 1015.3 |
| 20260906031048 | 79 | 131 | 7.0 | 11.0 | 0.00 | 0.00 | 0.00 | 62 | 1015.4 |
| 20260906030549 | 79 | 124 | 7.0 | 11.0 | 0.00 | 0.00 | 0.00 | 62 | 1015.4 |
| 20260906030109 | 79 | 125 | 7.0 | 11.0 | 0.00 | 0.00 | 0.00 | 62 | 1015.3 |
| 20260906025548 | 79 | 136 | 7.0 | 11.0 | 0.00 | 0.00 | 0.00 | 61 | 1015.3 |
| 20260906025045 | 80 | 136 | 7.0 | 11.0 | 0.00 | 0.00 | 0.00 | 61 | 1015.1 |
| 20260906024605 | 80 | 139 | 8.0 | 11.0 | 0.00 | 0.00 | 0.00 | 61 | 1014.8 |
| 20260906024047 | 80 | 129 | 9.0 | 12.0 | 0.00 | 0.00 | 0.00 | 61 | 1014.7 |
| 20260906023546 | 80 | 149 | 9.0 | 16.0 | 0.00 | 0.00 | 0.00 | 61 | 1014.7 |
| 20260906023115 | 80 | 130 | 10.0 | 16.0 | 0.00 | 0.00 | 0.00 | 61 | 1014.7 |
| 20260906022550 | 80 | 132 | 11.0 | 16.0 | 0.00 | 0.00 | 0.00 | 61 | 1014.6 |
| 20260906022047 | 80 | 127 | 11.0 | 16.0 | 0.00 | 0.00 | 0.00 | 61 | 1014.5 |
| 20260906021607 | 80 | 120 | 12.0 | 17.0 | 0.00 | 0.00 | 0.00 | 61 | 1014.6 |
| 20260906021047 | 80 | 140 | 11.0 | 17.0 | 0.00 | 0.00 | 0.00 | 61 | 1014.4 |
| 20260906020547 | 80 | 119 | 12.0 | 19.0 | 0.00 | 0.00 | 0.00 | 61 | 1014.4 |
| 20260906015547 | 80 | 84 | 14.0 | 19.0 | 0.00 | 0.00 | 0.00 | 62 | 1014.4 |
| 20260906015049 | 80 | 111 | 14.0 | 19.0 | 0.00 | 0.00 | 0.00 | 62 | 1014.2 |
| 20260906014606 | 80 | 118 | 13.0 | 19.0 | 0.00 | 0.00 | 0.00 | 62 | 1014.1 |
| 20260906014049 | 81 | 106 | 15.0 | 22.0 | 0.00 | 0.00 | 0.00 | 62 | 1014.2 |
| 20260906013546 | 81 | 111 | 15.0 | 22.0 | 0.00 | 0.00 | 0.00 | 60 | 1014.0 |
| 20260906013101 | 81 | 87 | 12.0 | 22.0 | 0.00 | 0.00 | 0.00 | 57 | 1013.9 |
| 20260906012549 | 82 | 116 | 15.0 | 22.0 | 0.00 | 0.00 | 0.00 | 56 | 1013.9 |
| 20260906012048 | 82 | 119 | 15.0 | 22.0 | 0.00 | 0.00 | 0.00 | 56 | 1013.8 |
| 20260906011610 | 82 | 115 | 14.0 | 22.0 | 0.00 | 0.00 | 0.00 | 57 | 1013.9 |
| 20260906011047 | 82 | 120 | 14.0 | 19.0 | 0.00 | 0.00 | 0.00 | 58 | 1014.0 |
| 20260906010548 | 82 | 126 | 14.0 | 19.0 | 0.00 | 0.00 | 0.00 | 58 | 1014.0 |
| 20260906010104 | 82 | 111 | 14.0 | 22.0 | 0.00 | 0.00 | 0.00 | 59 | 1014.0 |
| 20260906005546 | 82 | 135 | 15.0 | 23.0 | 0.00 | 0.00 | 0.00 | 59 | 1014.1 |
| 20260906005045 | 82 | 124 | 16.0 | 23.0 | 0.00 | 0.00 | 0.00 | 59 | 1014.1 |
| 20260906004600 | 82 | 114 | 14.0 | 23.0 | 0.00 | 0.00 | 0.00 | 58 | 1014.2 |
| 20260906004046 | 82 | 126 | 16.0 | 26.0 | 0.00 | 0.00 | 0.00 | 58 | 1014.2 |
| 20260906003546 | 83 | 113 | 17.0 | 26.0 | 0.00 | 0.00 | 0.00 | 58 | 1014.2 |
| 20260906003105 | 83 | 122 | 18.0 | 27.0 | 0.00 | 0.00 | 0.00 | 56 | 1014.2 |
| 20260906002552 | 84 | 124 | 19.0 | 27.0 | 0.00 | 0.00 | 0.00 | 56 | 1014.4 |
| 20260906002047 | 85 | 127 | 19.0 | 25.0 | 0.00 | 0.00 | 0.00 | 55 | 1014.3 |
| 20260906001611 | 85 | 98 | 17.0 | 22.0 | 0.00 | 0.00 | 0.00 | 54 | 1014.3 |
| 20260906001050 | 86 | 127 | 16.0 | 26.0 | 0.00 | 0.00 | 0.00 | 52 | 1014.2 |
| 20260906000547 | 86 | 96 | 17.0 | 28.0 | 0.00 | 0.00 | 0.00 | 51 | 1014.3 |
| 20260906000109 | 87 | 117 | 19.0 | 28.0 | 0.00 | 0.00 | 0.00 | 50 | 1014.3 |
| 20260905235548 | 87 | 116 | 18.0 | 24.0 | 0.00 | 0.00 | 0.00 | 51 | 1014.3 |
| 20260905235047 | 87 | 120 | 16.0 | 24.0 | 0.00 | 0.00 | 0.00 | 52 | 1014.1 |
| 20260905234607 | 87 | 96 | 16.0 | 24.0 | 0.00 | 0.00 | 0.00 | 51 | 1014.1 |
| 20260905234052 | 87 | 105 | 13.0 | 24.0 | 0.00 | 0.00 | 0.00 | 51 | 1014.2 |
| 20260905233547 | 88 | 84 | 12.0 | 24.0 | 0.00 | 0.00 | 0.00 | 51 | 1014.3 |
| 20260905233108 | 89 | 99 | 14.0 | 23.0 | 0.00 | 0.00 | 0.00 | 49 | 1014.2 |
| 20260905232548 | 91 | 113 | 14.0 | 22.0 | 0.00 | 0.00 | 0.00 | 45 | 1013.9 |
| 20260905232049 | 95 | 75 | 16.0 | 20.0 | 0.00 | 0.00 | 0.00 | 40 | 1014.0 |
| 20260905231619 | 96 | 148 | 11.0 | 16.0 | 0.00 | 0.00 | 0.00 | 35 | 1013.7 |
| 20260905231051 | 97 | 125 | 12.0 | 18.0 | 0.00 | 0.00 | 0.00 | 34 | 1013.6 |
| 20260905230549 | 97 | 101 | 12.0 | 18.0 | 0.00 | 0.00 | 0.00 | 34 | 1013.5 |
| 20260905230113 | 97 | 122 | 10.0 | 16.0 | 0.00 | 0.00 | 0.00 | 34 | 1013.4 |
| 20260905225546 | 98 | 115 | 7.0 | 22.0 | 0.00 | 0.00 | 0.00 | 34 | 1013.3 |
| 20260905225047 | 98 | 120 | 12.0 | 22.0 | 0.00 | 0.00 | 0.00 | 33 | 1013.2 |
| 20260905224604 | 97 | 146 | 13.0 | 22.0 | 0.00 | 0.00 | 0.00 | 34 | 1013.2 |
| 20260905224048 | 98 | 120 | 14.0 | 20.0 | 0.00 | 0.00 | 0.00 | 34 | 1013.2 |
| 20260905223546 | 97 | 128 | 12.0 | 18.0 | 0.00 | 0.00 | 0.00 | 34 | 1013.2 |
| 20260905223105 | 97 | 144 | 12.0 | 18.0 | 0.00 | 0.00 | 0.00 | 34 | 1013.2 |
| 20260905222550 | 98 | 129 | 10.0 | 18.0 | 0.00 | 0.00 | 0.00 | 33 | 1013.2 |
| 20260905222046 | 98 | 139 | 13.0 | 18.0 | 0.00 | 0.00 | 0.00 | 33 | 1013.1 |
| 20260905221633 | 98 | 141 | 12.0 | 20.0 | 0.00 | 0.00 | 0.00 | 34 | 1013.1 |
| 20260905221047 | 98 | 146 | 11.0 | 20.0 | 0.00 | 0.00 | 0.00 | 34 | 1013.1 |
| 20260905220549 | 98 | 151 | 12.0 | 18.0 | 0.00 | 0.00 | 0.00 | 33 | 1013.0 |
| 20260905220100 | 98 | 119 | 10.0 | 15.0 | 0.00 | 0.00 | 0.00 | 33 | 1013.2 |
| 20260905215547 | 98 | 143 | 9.0 | 16.0 | 0.00 | 0.00 | 0.00 | 34 | 1013.1 |
| 20260905215053 | 97 | 148 | 10.0 | 18.0 | 0.00 | 0.00 | 0.00 | 34 | 1013.2 |
| 20260905214609 | 97 | 161 | 12.0 | 19.0 | 0.00 | 0.00 | 0.00 | 35 | 1013.4 |
| 20260905214050 | 97 | 197 | 12.0 | 19.0 | 0.00 | 0.00 | 0.00 | 35 | 1013.4 |
| 20260905213549 | 97 | 195 | 14.0 | 19.0 | 0.00 | 0.00 | 0.00 | 35 | 1013.5 |
| 20260905213105 | 98 | 203 | 12.0 | 19.0 | 0.00 | 0.00 | 0.00 | 34 | 1013.6 |
| 20260905212552 | 98 | 152 | 12.0 | 19.0 | 0.00 | 0.00 | 0.00 | 34 | 1013.4 |
| 20260905212047 | 99 | 159 | 11.0 | 22.0 | 0.00 | 0.00 | 0.00 | 33 | 1013.4 |
| 20260905211605 | 99 | 206 | 12.0 | 22.0 | 0.00 | 0.00 | 0.00 | 33 | 1013.4 |
| 20260905211049 | 99 | 163 | 14.0 | 22.0 | 0.00 | 0.00 | 0.00 | 33 | 1013.4 |
| 20260905210548 | 99 | 157 | 13.0 | 22.0 | 0.00 | 0.00 | 0.00 | 32 | 1013.5 |
| 20260905210114 | 99 | 158 | 8.0 | 22.0 | 0.00 | 0.00 | 0.00 | 33 | 1013.5 |
| 20260905205548 | 98 | 200 | 13.0 | 20.0 | 0.00 | 0.00 | 0.00 | 34 | 1013.6 |
| 20260905205049 | 98 | 124 | 12.0 | 20.0 | 0.00 | 0.00 | 0.00 | 34 | 1013.7 |
| 20260905204601 | 98 | 135 | 8.0 | 20.0 | 0.00 | 0.00 | 0.00 | 35 | 1013.8 |
| 20260905204048 | 97 | 163 | 11.0 | 20.0 | 0.00 | 0.00 | 0.00 | 34 | 1014.0 |
| 20260905203548 | 98 | 124 | 7.0 | 17.0 | 0.00 | 0.00 | 0.00 | 34 | 1014.1 |
| 20260905203059 | 97 | 166 | 11.0 | 17.0 | 0.00 | 0.00 | 0.00 | 35 | 1014.3 |
| 20260905202549 | 97 | 176 | 13.0 | 22.0 | 0.00 | 0.00 | 0.00 | 35 | 1014.3 |
| 20260905202047 | 98 | 152 | 15.0 | 22.0 | 0.00 | 0.00 | 0.00 | 35 | 1014.3 |
| 20260905201600 | 98 | 141 | 14.0 | 20.0 | 0.00 | 0.00 | 0.00 | 35 | 1014.4 |
| 20260905201048 | 98 | 138 | 13.0 | 19.0 | 0.00 | 0.00 | 0.00 | 35 | 1014.5 |
| 20260905200548 | 97 | 169 | 9.0 | 16.0 | 0.00 | 0.00 | 0.00 | 35 | 1014.5 |
| 20260905200130 | 97 | 185 | 9.0 | 14.0 | 0.00 | 0.00 | 0.00 | 35 | 1014.6 |
| 20260905195552 | 96 | 170 | 9.0 | 15.0 | 0.00 | 0.00 | 0.00 | 35 | 1014.6 |
| 20260905195045 | 96 | 167 | 10.0 | 15.0 | 0.00 | 0.00 | 0.00 | 37 | 1014.6 |
| 20260905194600 | 96 | 145 | 10.0 | 14.0 | 0.00 | 0.00 | 0.00 | 37 | 1014.7 |
| 20260905194049 | 96 | 139 | 11.0 | 16.0 | 0.00 | 0.00 | 0.00 | 37 | 1014.7 |
| 20260905193548 | 96 | 158 | 11.0 | 16.0 | 0.00 | 0.00 | 0.00 | 37 | 1014.9 |
| 20260905193055 | 96 | 136 | 11.0 | 16.0 | 0.00 | 0.00 | 0.00 | 38 | 1014.9 |
| 20260905192549 | 96 | 151 | 11.0 | 15.0 | 0.00 | 0.00 | 0.00 | 38 | 1015.0 |
| 20260905192048 | 96 | 143 | 9.0 | 15.0 | 0.00 | 0.00 | 0.00 | 38 | 1014.9 |
| 20260905191602 | 96 | 153 | 9.0 | 13.0 | 0.00 | 0.00 | 0.00 | 38 | 1015.0 |
| 20260905191048 | 95 | 203 | 5.0 | 13.0 | 0.00 | 0.00 | 0.00 | 38 | 1014.9 |
| 20260905190546 | 95 | 161 | 9.0 | 14.0 | 0.00 | 0.00 | 0.00 | 38 | 1014.9 |
| 20260905185552 | 95 | 131 | 10.0 | 13.0 | 0.00 | 0.00 | 0.00 | 39 | 1015.2 |
| 20260905185045 | 95 | 161 | 7.0 | 15.0 | 0.00 | 0.00 | 0.00 | 39 | 1015.2 |
| 20260905184603 | 95 | 154 | 10.0 | 15.0 | 0.00 | 0.00 | 0.00 | 38 | 1015.2 |
| 20260905184054 | 96 | 141 | 11.0 | 17.0 | 0.00 | 0.00 | 0.00 | 38 | 1015.2 |
| 20260905183547 | 96 | 101 | 10.0 | 18.0 | 0.00 | 0.00 | 0.00 | 38 | 1015.2 |
| 20260905183057 | 97 | 132 | 10.0 | 23.0 | 0.00 | 0.00 | 0.00 | 37 | 1015.4 |
| 20260905182549 | 97 | 217 | 12.0 | 23.0 | 0.00 | 0.00 | 0.00 | 36 | 1015.4 |
| 20260905182053 | 97 | 202 | 12.0 | 19.0 | 0.00 | 0.00 | 0.00 | 37 | 1015.4 |
| 20260905181609 | 97 | 125 | 8.0 | 17.0 | 0.00 | 0.00 | 0.00 | 39 | 1015.4 |
| 20260905181048 | 96 | 149 | 13.0 | 17.0 | 0.00 | 0.00 | 0.00 | 40 | 1015.4 |
| 20260905180546 | 95 | 155 | 9.0 | 16.0 | 0.00 | 0.00 | 0.00 | 39 | 1015.4 |
| 20260905180116 | 95 | 132 | 10.0 | 16.0 | 0.00 | 0.00 | 0.00 | 40 | 1015.5 |
| 20260905175549 | 95 | 193 | 9.0 | 16.0 | 0.00 | 0.00 | 0.00 | 40 | 1015.7 |
| 20260905175052 | 94 | 202 | 10.0 | 16.0 | 0.00 | 0.00 | 0.00 | 42 | 1015.8 |
| 20260905174557 | 94 | 129 | 10.0 | 17.0 | 0.00 | 0.00 | 0.00 | 43 | 1015.8 |
| 20260905174050 | 94 | 125 | 10.0 | 17.0 | 0.00 | 0.00 | 0.00 | 43 | 1016.0 |
| 20260905173549 | 94 | 129 | 11.0 | 17.0 | 0.00 | 0.00 | 0.00 | 42 | 1016.0 |
| 20260905173129 | 94 | 158 | 11.0 | 18.0 | 0.00 | 0.00 | 0.00 | 43 | 1015.9 |
| 20260905172550 | 94 | 146 | 11.0 | 19.0 | 0.00 | 0.00 | 0.00 | 42 | 1015.9 |
| 20260905172049 | 95 | 162 | 9.0 | 19.0 | 0.00 | 0.00 | 0.00 | 42 | 1016.1 |